User: anonymous   Login
Location: Sihaung
(22.8641°N, 94.0549°E)
Time: 15:25:14
(UTC+00:00)
Language:

Palapa 6 Rocket - Orbit

View from above orbital plane
View from above orbital plane
View from above satellite
View from above satellite

Ground track
Ground track

The orbit data is extracted from the following two-line orbital elements,

1 20571U 90034B   21137.83003546  .00000425  00000-0  15315-4 0  9994
2 20571  22.7464 273.4811 0506209  11.0429 350.0701 14.12606220594498
Epoch (UTC): 17 May 2021 19:55:15
Eccentricity: 0.0506209
inclination: 22.7464°
perigee height: 484 km
apogee height: 1216 km
right ascension of ascending node: 273.4811°
argument of perigee: 11.0429°
revolutions per day: 14.12606220
mean anomaly at epoch: 350.0701°
orbit number at epoch: 59449

The dashed part of the orbit path shows where the satellite is in the earth's shadow,  

DLR